Monterey, Australia

5:54 PM AEST on April 26, 2017 (GMT +1000)
Monterey

Weather History for 94767 - February, 2014

Change the Weather History Date:

Saturday, February 15, 2014

  Actual Average Record
Temperature  
Mean Temperature 75 °F -  
Max Temperature 80 °F 79 °F - ()
Min Temperature 70 °F 64 °F - ()
Cooling Degree Days 10    
Growing Degree Days 25 (Base 50)    
Moisture  
Dew Point 69 °F    
Average Humidity 82    
Maximum Humidity 94    
Minimum Humidity 55    
Precipitation  
Precipitation 0.04 in 0.17 in - ()
Sea Level Pressure  
Sea Level Pressure 29.56 in    
Wind  
Wind Speed 9 mph ()    
Max Wind Speed 17 mph    
Max Gust Speed -    
Visibility 6.5 miles    
Events Rain    
T = Trace of Precipitation, MM = Missing Value Source: Averaged Metar Reports

Daily Weather History Graph

Daily Weather History Graph

Search for Another Location

Airport or City:

Trip Planner

Search our weather history database for the weather conditions in past years. The results will help you decide how hot, cold, wet, or windy it might be!

Date:

Astronomy

Feb. 15, 2014 Rise Set
Actual Time 6:30 AM AEDT 7:48 PM AEDT
Civil Twilight 6:03 AM AEDT 8:14 PM AEDT
Nautical Twilight 5:32 AM AEDT 8:45 PM AEDT
Astronomical Twilight 4:59 AM AEDT 9:18 PM AEDT
Moon 7:38 PM AEDT (2/15) 6:29 AM AEDT (2/15)
Length of Visible Light 14h 10m
Length of Day
13h 18m
Full, 100% of the Moon is Illuminated
Feb 15
Full
Feb 23
Last Quarter
Mar 1
New
Mar 9
First Quarter
Mar 17
Full

Hourly Weather History & Observations

Time (AEDT) Temp. Heat Index Dew Point Humidity Pressure Visibility Wind Dir Wind Speed Gust Speed Precip Events Conditions
12:00 AM 73 °F - 67 °F 77% 29.71 in 12 mi NNE 9.2 mph - - Rain Light Rain
12:00 AM 73.4 °F - 68.0 °F 83% 29.71 in 6.2 mi NNE 9.2 mph - N/A Rain Light Rain
12:30 AM 73.4 °F - 68.0 °F 83% 29.71 in 6.2 mi North 10.4 mph - N/A Rain Light Rain
1:00 AM 73 °F - 68 °F 79% 29.70 in - North 9.2 mph - -  
1:00 AM 73.4 °F - 68.0 °F 83% 29.68 in 6.2 mi North 9.2 mph - N/A Rain Light Rain
1:30 AM 71.6 °F - 68.0 °F 88% 29.65 in 6.2 mi NE 9.2 mph - N/A Rain Light Rain
2:00 AM 71 °F - 67 °F 84% 29.64 in - NE 10.4 mph - -  
2:00 AM 71.6 °F - 68.0 °F 88% 29.62 in 6.2 mi NE 10.4 mph - N/A Rain Light Rain
2:30 AM 71.6 °F - 68.0 °F 88% 29.62 in 6.2 mi NNE 10.4 mph - N/A   Mostly Cloudy
3:00 AM 71 °F - 67 °F 85% 29.61 in 10 mi NNE 10.4 mph - - Rain Light Rain
3:00 AM 71.6 °F - 68.0 °F 88% 29.59 in 6.2 mi NNE 10.4 mph - N/A Rain Light Rain
3:30 AM 71.6 °F - 68.0 °F 88% 29.59 in 6.2 mi NNE 12.7 mph - N/A Rain Light Rain
4:00 AM 71 °F - 68 °F 87% 29.62 in - North 10.4 mph - -  
4:00 AM 71.6 °F - 68.0 °F 88% 29.62 in 6.2 mi North 10.4 mph - N/A   Overcast
4:30 AM 71.6 °F - 68.0 °F 88% 29.62 in 6.2 mi North 10.4 mph - N/A Rain Light Rain
5:00 AM 71 °F - 67 °F 84% 29.62 in - North 8.1 mph - -  
5:00 AM 71.6 °F - 68.0 °F 88% 29.59 in 6.2 mi North 8.1 mph - N/A   Mostly Cloudy
5:30 AM 71.6 °F - 68.0 °F 88% 29.59 in 6.2 mi North 6.9 mph - N/A Rain Light Rain
6:00 AM 71 °F - 68 °F 86% 29.63 in 8 mi NE 4.6 mph - - Rain Light Rain
6:00 AM 71.6 °F - 68.0 °F 88% 29.62 in 6.2 mi NE 4.6 mph - N/A Rain Light Rain
6:30 AM 71.6 °F - 68.0 °F 88% 29.62 in 4.3 mi NNW 8.1 mph - N/A Rain Light Rain
7:00 AM 71 °F - 68 °F 86% 29.64 in - NNE 5.8 mph - -  
7:00 AM 71.6 °F - 68.0 °F 88% 29.62 in 5.0 mi NNE 5.8 mph - N/A Rain Light Rain
7:30 AM 69.8 °F - 68.0 °F 94% 29.62 in 5.0 mi NE 8.1 mph - N/A Rain Light Rain
7:51 AM 71.6 °F - 68.0 °F 88% 29.62 in 3.7 mi NNE 6.9 mph - N/A Rain Rain
8:00 AM 72 °F - 69 °F 85% 29.64 in - NNE 5.8 mph - -  
8:00 AM 71.6 °F - 68.0 °F 88% 29.62 in 3.7 mi NNE 5.8 mph - N/A Rain Heavy Rain
8:21 AM 71.6 °F - 68.0 °F 88% 29.62 in 5.0 mi NNE 8.1 mph - N/A Rain Light Rain
8:30 AM 73.4 °F - 68.0 °F 83% 29.62 in 5.0 mi NNE 5.8 mph - N/A Rain Light Rain
9:00 AM 73 °F - 69 °F 82% 29.64 in 5 mi North 9.2 mph - - Rain Light Rain
9:00 AM 73.4 °F - 68.0 °F 83% 29.62 in 5.0 mi North 9.2 mph - N/A Rain Light Rain
9:30 AM 73.4 °F - 69.8 °F 88% 29.62 in 5.0 mi North 9.2 mph - N/A   Overcast
10:00 AM 73 °F - 69 °F 84% 29.61 in - North 12.7 mph - -  
10:00 AM 73.4 °F - 69.8 °F 88% 29.59 in 4.3 mi North 12.7 mph - N/A Rain Rain
10:30 AM 73.4 °F - 69.8 °F 88% 29.59 in 6.2 mi North 16.1 mph - N/A Rain Light Rain
11:00 AM 75 °F - 69 °F 75% 29.60 in - North 17.3 mph - -  
11:00 AM 75.2 °F - 68.0 °F 78% 29.59 in 6.2 mi North 17.3 mph - N/A   Overcast
11:30 AM 75.2 °F - 68.0 °F 78% 29.56 in 6.2 mi North 13.8 mph - N/A Rain Light Rain
12:00 PM 78 °F - 67 °F 61% 29.57 in 16 mi North 10.4 mph - - Rain Light Rain
12:00 PM 77.0 °F - 68.0 °F 74% 29.56 in 6.2 mi North 10.4 mph - N/A Rain Light Rain
12:30 PM 78.8 °F - 68.0 °F 69% 29.56 in 6.2 mi North 12.7 mph - N/A Rain Light Rain
1:00 PM 80 °F - 67 °F 55% 29.56 in - NNW 9.2 mph - -  
1:00 PM 80.6 °F 82.7 °F 66.2 °F 61% 29.53 in 6.2 mi NNW 9.2 mph - N/A Rain Light Rain
1:30 PM 80.6 °F 82.7 °F 66.2 °F 61% 29.53 in 6.2 mi North 10.4 mph - N/A Rain Light Rain
2:00 PM 78 °F - 68 °F 63% 29.53 in - ENE 6.9 mph - -  
2:00 PM 78.8 °F - 68.0 °F 69% 29.50 in 6.2 mi ENE 6.9 mph - N/A Rain Light Rain
2:30 PM 77.0 °F - 68.0 °F 74% 29.50 in 6.2 mi NNE 10.4 mph - N/A   Light Drizzle
3:00 PM 76 °F - 69 °F 73% 29.51 in 7 mi NNE 12.7 mph - - Rain Light Rain
3:00 PM 75.2 °F - 69.8 °F 83% 29.50 in 6.2 mi NNE 12.7 mph - N/A Rain Light Rain
3:30 PM 77.0 °F - 68.0 °F 74% 29.50 in 6.2 mi NNE 10.4 mph - N/A   Overcast
4:00 PM 76 °F - 68 °F 71% 29.50 in - NE 10.4 mph - -  
4:00 PM 77.0 °F - 68.0 °F 74% 29.47 in 6.2 mi NE 10.4 mph - N/A Rain Light Rain
4:30 PM 75.2 °F - 69.8 °F 83% 29.47 in 6.2 mi NE 10.4 mph - N/A Rain Light Rain
5:00 PM 75 °F - 70 °F 81% 29.49 in - ENE 9.2 mph - -  
5:00 PM 75.2 °F - 69.8 °F 83% 29.47 in 6.2 mi ENE 9.2 mph - N/A Rain Light Rain
5:30 PM 75.2 °F - 69.8 °F 83% 29.44 in 6.2 mi ENE 8.1 mph - N/A Rain Light Rain
6:00 PM 74 °F - 70 °F 83% 29.46 in 12 mi ENE 8.1 mph - - Rain Light Rain
6:00 PM 75.2 °F - 69.8 °F 83% 29.44 in 6.2 mi ENE 8.1 mph - N/A   Overcast
6:30 PM 75.2 °F - 69.8 °F 83% 29.44 in 6.2 mi NNE 5.8 mph - N/A Rain Light Rain
7:00 PM 75 °F - 70 °F 80% 29.47 in - NNE 9.2 mph - -  
7:00 PM 75.2 °F - 69.8 °F 83% 29.44 in 6.2 mi NNE 9.2 mph - N/A Rain Light Rain
7:30 PM 75.2 °F - 69.8 °F 83% 29.47 in 6.2 mi North 6.9 mph - N/A Rain Light Rain
8:00 PM 76 °F - 70 °F 78% 29.48 in - NNE 5.8 mph - -  
8:00 PM 77.0 °F - 69.8 °F 78% 29.47 in - NNE 5.8 mph - N/A   Clear
8:30 PM 77.0 °F - 69.8 °F 78% 29.50 in 6.2 mi Calm Calm - N/A Rain Light Rain
9:00 PM 74 °F - 71 °F 88% 29.51 in 11 mi NW 4.6 mph - - Rain Light Rain
9:00 PM 75.2 °F - 71.6 °F 89% 29.50 in 6.2 mi NW 4.6 mph - N/A Rain Light Rain
9:30 PM 75.2 °F - 71.6 °F 89% 29.50 in 6.2 mi NE 8.1 mph - N/A Rain Light Rain
10:00 PM 75 °F - 71 °F 85% 29.50 in - NNE 9.2 mph - -  
10:00 PM 75.2 °F - 71.6 °F 89% 29.50 in - NNE 9.2 mph - N/A   Clear
10:30 PM 75.2 °F - 71.6 °F 89% 29.47 in - North 6.9 mph - N/A   Clear
11:00 PM 76 °F - 72 °F 82% 29.49 in - NW 8.1 mph - -  
11:00 PM 75.2 °F - 71.6 °F 89% 29.47 in - NW 8.1 mph - N/A   Clear
11:30 PM 75.2 °F - 71.6 °F 89% 29.47 in - North 8.1 mph - N/A   Clear